TimeEDT,TemperatureF,Dew PointF,Humidity,Sea Level PressureIn,VisibilityMPH,Wind Direction,Wind SpeedMPH,Gust SpeedMPH,PrecipitationIn,Events,Conditions,WindDirDegrees,DateUTC
12:53 AM,71.1,69.1,93,30.06,9.0,Calm,Calm,-,N/A,,Clear,0,2013-08-11 04:53:00
1:53 AM,70.0,68.0,93,30.05,7.0,Calm,Calm,-,N/A,,Clear,0,2013-08-11 05:53:00
2:30 AM,69.8,66.2,88,30.12,10.0,Calm,Calm,-,N/A,,Scattered Clouds,0,2013-08-11 06:30:00
2:42 AM,69.8,66.2,88,30.11,10.0,Calm,Calm,-,N/A,,Mostly Cloudy,0,2013-08-11 06:42:00
2:53 AM,70.0,68.0,93,30.04,9.0,Calm,Calm,-,N/A,,Scattered Clouds,0,2013-08-11 06:53:00
3:05 AM,69.8,66.2,88,30.11,8.0,Calm,Calm,-,N/A,,Mostly Cloudy,0,2013-08-11 07:05:00
3:13 AM,69.8,68.0,94,30.11,7.0,Calm,Calm,-,N/A,,Partly Cloudy,0,2013-08-11 07:13:00
3:53 AM,70.0,68.0,93,30.06,9.0,Calm,Calm,-,N/A,,Partly Cloudy,0,2013-08-11 07:53:00
4:09 AM,69.8,68.0,94,30.12,8.0,Calm,Calm,-,N/A,,Mostly Cloudy,0,2013-08-11 08:09:00
4:50 AM,69.8,68.0,94,30.13,8.0,Calm,Calm,-,N/A,,Scattered Clouds,0,2013-08-11 08:50:00
4:53 AM,70.0,68.0,93,30.07,8.0,Calm,Calm,-,N/A,,Partly Cloudy,0,2013-08-11 08:53:00
5:53 AM,70.0,68.0,93,30.07,8.0,Calm,Calm,-,N/A,,Clear,0,2013-08-11 09:53:00
6:13 AM,69.8,68.0,94,30.14,7.0,Calm,Calm,-,N/A,,Scattered Clouds,0,2013-08-11 10:13:00
6:22 AM,69.8,68.0,94,30.14,6.0,Calm,Calm,-,N/A,,Mostly Cloudy,0,2013-08-11 10:22:00
6:53 AM,70.0,68.0,93,30.09,9.0,Calm,Calm,-,N/A,,Mostly Cloudy,0,2013-08-11 10:53:00
7:53 AM,71.1,68.0,90,30.09,10.0,Calm,Calm,-,N/A,,Partly Cloudy,0,2013-08-11 11:53:00
8:53 AM,72.0,69.1,91,30.10,10.0,Calm,Calm,-,N/A,,Clear,0,2013-08-11 12:53:00
9:14 AM,73.4,69.8,88,30.16,10.0,Calm,Calm,-,N/A,,Scattered Clouds,0,2013-08-11 13:14:00
9:25 AM,73.4,69.8,88,30.17,10.0,WSW,3.5,-,N/A,,Mostly Cloudy,250,2013-08-11 13:25:00
9:41 AM,73.4,69.8,88,30.16,10.0,Calm,Calm,-,N/A,,Mostly Cloudy,0,2013-08-11 13:41:00
9:53 AM,75.0,70.0,84,30.10,10.0,Calm,Calm,-,N/A,,Partly Cloudy,0,2013-08-11 13:53:00
10:53 AM,80.1,70.0,71,30.10,10.0,Calm,Calm,-,N/A,,Clear,0,2013-08-11 14:53:00
11:53 AM,82.9,68.0,60,30.08,10.0,Calm,Calm,-,N/A,,Clear,0,2013-08-11 15:53:00
12:53 PM,84.9,70.0,61,30.07,10.0,Calm,Calm,-,N/A,,Partly Cloudy,0,2013-08-11 16:53:00
1:53 PM,87.1,69.1,55,30.06,10.0,NW,4.6,-,N/A,,Scattered Clouds,310,2013-08-11 17:53:00
2:53 PM,87.1,69.1,55,30.04,10.0,SSW,9.2,-,N/A,,Clear,210,2013-08-11 18:53:00
3:53 PM,84.9,71.1,63,30.02,10.0,South,9.2,-,N/A,,Clear,190,2013-08-11 19:53:00
4:53 PM,84.0,71.1,65,30.02,10.0,NE,3.5,-,N/A,,Mostly Cloudy,40,2013-08-11 20:53:00
5:53 PM,84.0,71.1,65,30.02,10.0,SW,9.2,-,N/A,,Clear,220,2013-08-11 21:53:00
6:53 PM,82.0,71.1,69,30.01,10.0,SW,4.6,-,N/A,,Clear,230,2013-08-11 22:53:00
7:53 PM,80.1,71.1,74,30.02,10.0,Calm,Calm,-,N/A,,Clear,0,2013-08-11 23:53:00
8:53 PM,77.0,71.1,82,30.02,10.0,SSW,3.5,-,N/A,,Partly Cloudy,200,2013-08-12 00:53:00
9:53 PM,77.0,72.0,84,30.04,10.0,Calm,Calm,-,N/A,,Scattered Clouds,0,2013-08-12 01:53:00
10:53 PM,77.0,71.1,82,30.04,10.0,Calm,Calm,-,N/A,,Mostly Cloudy,0,2013-08-12 02:53:00
11:53 PM,75.0,71.1,87,30.04,10.0,Calm,Calm,-,N/A,,Partly Cloudy,0,2013-08-12 03:53:00